Theta_e
317 319 323 324 325 327 329 329 328 327 327 326 327 326 322 318 318 317 318 320 323 325 324 320 317 317 317 317 315 313 312 309 308 308 309 311 314 318 318 318 317 317 316 315 314 314 315 316 318 323 326 326 325 325 327 328 326 325 328 330 330 331
315 318 320 321 323 326 328 328 326 324 324 325 325 322 319 318 318 318 321 322 322 323 323 321 322 325 326 326 322 318 315 312 310 309 308 309 311 314 317 318 319 318 318 318 317 317 316 317 321 325 327 328 328 328 328 330 330 330 330 330 330 330
314 315 316 317 322 326 327 326 323 322 323 323 322 321 320 320 320 322 321 321 319 320 323 323 328 332 332 332 330 325 322 318 315 313 310 309 309 310 312 314 315 317 321 324 324 325 325 327 330 331 330 330 330 329 330 331 331 332 331 331 331 331
314 314 314 316 320 323 324 323 322 322 322 322 321 321 320 320 325 324 320 321 323 326 329 330 333 335 334 332 333 332 330 326 322 320 316 313 313 314 313 313 312 317 326 330 329 330 330 331 331 330 330 330 330 330 331 331 331 331 332 332 332 332
318 317 315 316 318 318 321 322 322 322 322 321 320 320 321 325 328 322 321 327 330 331 333 333 333 334 333 332 333 333 333 331 329 326 323 320 320 322 322 320 319 321 328 329 329 330 330 330 329 329 330 330 332 332 332 332 332 332 332 332 332 332
323 321 318 317 317 317 320 322 322 322 322 322 322 324 328 331 327 318 323 331 331 332 334 333 333 333 333 333 333 333 333 332 332 331 328 325 325 326 328 328 327 327 328 329 328 328 328 329 329 329 330 331 332 332 332 332 332 332 332 333 333 332
326 324 322 320 317 317 320 322 322 322 324 326 328 331 333 331 324 319 327 332 331 332 333 333 333 333 334 334 334 332 332 332 332 333 332 330 328 328 330 331 331 331 330 330 330 329 329 329 329 330 331 331 332 332 332 332 332 332 332 333 332 332
330 327 324 322 318 317 319 321 322 325 329 331 331 333 332 327 321 323 330 332 332 333 333 334 334 334 334 334 334 331 331 331 332 332 331 332 331 330 332 332 332 332 332 331 331 331 331 331 331 331 332 332 332 332 332 332 333 333 333 332 332 332
333 330 327 323 319 317 320 322 324 330 333 331 331 332 330 323 320 328 334 333 333 334 334 334 334 334 334 334 334 332 331 331 331 330 330 332 333 332 333 332 332 332 332 332 332 331 331 332 332 332 332 332 332 332 332 332 333 333 333 332 332 332
333 331 327 321 319 318 321 324 327 331 332 330 330 330 326 321 323 331 334 333 334 334 334 334 334 333 333 334 334 333 332 332 332 331 331 332 333 333 333 332 332 332 333 333 333 332 332 332 332 332 332 332 332 332 332 332 332 332 332 332 333 332
330 328 324 320 320 320 324 326 327 330 330 327 328 326 323 324 329 334 335 334 334 333 333 333 333 333 333 333 333 333 333 332 333 333 331 331 332 332 331 331 331 332 332 332 332 332 331 332 332 332 332 332 332 331 331 332 332 332 332 331 331 330
329 325 321 320 321 322 325 327 327 327 327 325 326 326 327 330 333 335 336 335 334 334 333 333 333 333 333 332 331 332 331 331 333 333 332 331 331 331 330 330 330 331 332 332 331 331 331 331 331 331 331 331 330 330 331 331 331 331 330 329 328 328
330 325 322 322 324 324 326 327 327 326 326 325 327 329 331 333 334 335 336 335 334 334 333 332 333 334 333 331 330 330 331 331 332 332 331 331 331 330 330 330 331 331 331 331 331 330 330 329 329 328 328 329 329 329 329 329 329 328 327 327 327 328
331 329 327 326 326 326 327 327 328 328 328 328 329 331 332 334 335 335 335 334 333 333 333 332 333 334 332 331 331 330 330 330 330 330 330 331 331 331 330 330 330 330 330 330 329 328 327 326 326 327 328 328 328 328 327 327 326 325 326 328 329 329
332 331 330 329 329 328 328 329 329 330 330 331 331 331 332 334 335 335 334 333 333 332 332 332 332 332 332 332 331 330 330 330 330 331 331 331 331 330 330 329 329 329 328 327 327 326 325 326 326 326 327 327 327 326 325 324 324 325 328 330 330 330
334 332 331 329 330 330 330 331 332 332 332 333 333 331 333 335 335 333 332 332 333 333 333 333 331 330 330 331 330 331 331 331 331 331 331 330 330 329 329 329 328 328 327 327 326 326 326 326 326 326 327 326 325 325 324 323 324 326 329 330 331 331
334 333 331 330 331 331 333 333 333 334 333 334 333 333 334 335 333 332 332 333 334 334 334 334 333 331 331 330 331 331 331 331 331 330 329 329 329 329 329 329 328 327 327 326 325 325 325 325 325 326 326 325 325 324 324 324 325 327 329 330 331 331
334 333 332 332 332 333 334 334 334 334 334 334 334 334 335 334 333 332 332 333 333 333 334 334 334 332 332 331 331 331 330 331 330 329 329 329 329 329 329 328 328 327 326 325 325 324 323 322 322 322 324 324 324 324 324 324 325 327 329 330 330 331
335 335 334 333 333 334 335 335 335 334 334 335 336 335 334 334 333 332 332 332 332 332 334 334 333 332 331 331 331 331 331 331 331 330 330 329 330 329 329 328 328 327 326 326 325 323 321 320 319 320 320 320 322 323 324 325 326 327 328 329 330 330
335 335 334 334 334 334 335 335 335 335 335 336 335 334 333 333 333 332 332 331 332 333 334 334 333 332 331 331 331 331 332 331 331 331 330 330 330 329 328 327 326 326 325 324 323 322 321 320 318 316 316 317 320 321 323 325 327 327 327 328 328 328
335 335 333 334 334 334 334 335 336 336 335 335 335 334 334 334 333 333 332 332 333 334 334 334 333 332 332 331 331 330 330 330 331 330 330 329 327 327 326 324 323 322 322 321 320 320 318 317 314 313 313 314 316 318 321 324 326 327 327 326 326 325
334 333 333 334 335 334 335 336 336 335 335 335 334 334 334 334 333 333 332 333 334 334 333 333 333 333 332 332 331 331 330 330 330 330 329 328 327 326 323 321 320 319 318 317 316 315 314 313 313 312 312 312 313 315 318 324 326 327 328 326 323 320
332 332 333 335 336 336 336 337 336 335 334 334 334 334 334 333 333 332 333 334 334 334 334 334 333 333 332 331 331 331 331 330 330 330 329 328 326 323 320 318 317 315 314 313 313 313 313 312 312 312 312 311 312 313 317 323 322 320 321 320 315 312
333 335 336 337 337 337 337 336 336 335 335 333 333 333 333 332 333 333 333 334 334 334 334 333 332 332 330 330 330 330 330 329 329 328 327 325 322 319 317 315 314 313 312 312 312 312 312 311 310 310 308 308 309 310 313 315 312 311 311 309 306 304
336 337 337 337 336 336 336 336 336 336 335 333 332 332 332 333 332 333 333 334 334 334 332 331 331 330 328 328 327 327 326 326 326 324 322 320 317 316 314 313 312 312 311 311 311 310 309 308 306 305 304 304 306 307 307 305 304 307 306 303 302 301
336 336 337 336 336 336 335 335 334 334 334 332 331 331 332 333 332 333 334 334 333 332 330 329 328 328 327 326 325 324 324 324 322 320 318 316 314 313 312 312 311 311 311 310 308 306 304 303 303 302 302 302 303 303 303 302 302 303 303 302 301 299
336 336 336 336 335 335 335 334 333 332 331 331 330 330 331 332 333 333 333 332 330 329 328 326 326 326 325 324 323 323 322 320 318 316 314 313 312 311 311 310 310 309 307 305 303 302 302 302 302 302 302 302 301 302 302 302 300 299 300 301 300 299
336 336 335 335 334 334 334 333 332 331 331 331 331 330 330 332 333 332 331 330 329 328 327 325 325 324 323 322 321 320 318 316 314 313 312 311 311 310 309 308 306 304 302 302 301 301 301 301 301 301 301 302 301 301 301 300 299 299 299 300 300 300
335 335 334 334 334 334 334 333 332 332 332 332 332 332 332 332 332 331 330 329 328 327 326 325 324 323 321 319 317 316 314 313 312 312 311 310 309 308 306 304 302 301 301 301 301 301 300 300 300 300 300 300 299 300 299 298 299 299 298 299 299 300
335 335 333 333 334 334 334 334 333 333 333 333 332 332 331 331 331 330 330 328 327 326 324 323 322 320 318 316 314 313 312 311 311 310 310 308 306 304 302 301 301 301 301 301 301 300 300 299 299 298 298 298 298 298 299 299 298 298 298 298 298 298
335 334 333 334 334 334 333 333 333 334 333 332 331 331 330 331 330 330 329 327 325 324 322 320 318 316 315 313 312 311 311 310 310 309 307 305 303 301 300 300 300 300 300 300 300 299 299 298 298 297 297 297 297 297 298 298 297 297 297 297 297 297
335 335 334 334 334 333 333 333 333 333 333 331 331 331 331 331 330 328 326 325 324 322 319 317 315 314 313 311 311 310 310 309 308 306 304 301 300 300 300 300 300 300 300 299 299 298 298 297 297 297 297 296 296 296 297 297 296 296 296 296 296 296
335 334 334 334 334 334 333 333 333 333 332 332 332 332 331 330 328 326 325 323 322 320 316 314 313 312 311 310 310 309 308 306 305 303 301 300 300 299 299 299 299 299 299 298 298 298 298 297 296 297 296 296 296 296 296 296 296 296 296 296 296 296
334 333 333 333 334 334 333 333 332 332 332 332 332 331 330 328 326 324 323 321 318 315 313 312 312 311 310 309 308 307 306 303 301 300 299 299 299 299 299 299 299 299 299 298 298 298 298 297 296 296 296 296 296 296 296 296 295 295 296 296 296 296
333 333 332 332 333 332 332 332 332 332 332 331 330 329 327 326 324 323 321 318 314 312 311 311 311 310 309 308 306 305 303 300 299 299 299 299 299 299 299 298 299 298 298 298 298 298 298 297 296 296 296 296 296 296 296 295 295 295 295 296 296 295
332 331 331 331 331 332 331 331 332 331 330 330 329 327 326 324 323 322 321 317 312 310 310 310 310 309 307 306 304 302 300 299 299 298 299 299 298 298 298 298 298 298 298 297 297 297 297 296 296 296 296 296 295 295 295 295 295 295 295 295 295 295
331 330 330 331 331 332 331 331 331 330 329 328 327 325 324 324 322 321 321 319 314 310 309 309 308 307 305 303 302 300 299 299 298 298 298 298 298 298 298 298 298 298 297 297 296 296 297 296 296 295 295 295 295 295 295 295 295 295 295 295 295 295
Wind_Speed
20 20 20 19 18 17 16 15 14 13 12 11 10 8 7 7 7 7 6 5 4 4 5 6 7 8 8 7 6 5 4 4 4 4 4 4 4 4 5 6 6 6 6 7 8 8 8 7 6 5 5 4 3 4 4 5 7 7 7 8 8 8
20 19 19 19 17 17 16 15 14 13 13 11 10 9 9 9 8 7 5 4 3 3 4 6 7 7 8 7 6 5 4 3 3 3 3 4 4 4 4 5 5 5 5 5 6 6 7 6 5 4 3 2 1 2 2 3 4 4 6 7 8 9
18 18 18 17 16 16 15 15 14 13 12 12 11 11 11 9 8 6 5 5 5 5 5 5 5 5 5 6 5 4 4 3 3 3 3 4 4 4 4 4 5 5 5 6 6 6 6 6 4 4 2 1 1 1 2 2 4 5 6 7 9 10
16 16 16 16 16 15 15 14 14 12 12 13 13 12 11 9 7 5 6 7 5 5 5 4 3 3 3 3 4 2 2 3 2 2 3 4 5 5 5 5 6 7 7 7 6 6 6 5 4 4 2 1 1 1 3 4 5 6 8 9 11 12
16 15 15 15 15 14 14 15 14 13 13 14 13 12 10 8 6 6 7 6 5 5 4 3 3 2 2 3 3 1 1 1 2 2 3 4 5 5 5 5 6 7 7 6 5 4 4 4 4 4 3 3 3 3 4 5 6 8 9 11 12 13
17 16 15 14 14 14 15 15 14 14 15 14 13 11 8 6 5 6 6 4 4 4 3 2 3 2 2 2 2 1 1 1 2 2 3 4 4 5 4 4 5 5 5 4 3 3 3 4 4 4 5 5 6 6 7 7 8 10 11 12 13 15
19 18 16 15 14 14 15 14 14 15 15 14 11 9 7 5 5 6 5 3 3 3 2 1 1 2 2 2 2 1 2 1 2 3 3 4 4 5 4 3 3 3 3 3 3 4 4 5 5 6 7 7 8 9 10 10 11 12 13 14 15 16
19 18 18 17 16 15 15 15 16 15 14 13 11 9 7 6 7 6 4 3 2 1 1 2 2 2 2 2 2 1 2 1 2 3 3 3 4 4 4 4 4 4 4 5 5 5 6 7 8 9 9 10 11 12 12 13 14 14 15 16 17 18
19 19 18 18 17 16 16 17 17 16 14 13 12 10 8 8 9 7 4 3 3 2 1 2 3 3 2 3 2 1 1 1 1 1 2 2 3 3 3 4 4 5 6 7 7 7 8 9 10 11 12 12 13 13 14 15 15 16 17 18 18 18
20 19 19 19 18 18 18 18 18 16 14 13 12 11 9 9 9 6 3 3 4 4 4 4 4 4 2 1 2 1 1 2 1 1 1 2 2 3 4 4 6 7 8 8 9 9 10 11 12 13 13 14 14 15 16 16 17 17 18 18 18 17
21 20 20 20 20 19 19 19 18 17 14 12 11 11 10 8 7 4 3 5 6 6 6 6 5 5 3 1 1 1 2 2 2 2 2 3 3 4 4 5 7 8 8 9 10 11 11 12 12 12 13 14 15 16 17 17 17 17 17 17 16 15
21 21 22 21 21 20 19 19 18 16 14 11 11 10 8 7 5 4 5 7 7 7 6 6 6 5 3 3 3 2 2 2 3 3 3 4 4 5 5 6 7 8 9 9 10 11 12 12 12 13 13 14 14 15 15 15 15 15 15 15 14 13
21 22 22 22 21 20 19 19 17 15 12 11 10 8 7 6 5 5 7 9 8 7 7 6 6 5 4 4 4 3 3 4 4 4 4 5 5 5 6 6 8 9 9 10 11 11 11 12 13 14 14 14 14 14 14 14 14 14 14 13 12 11
21 21 21 21 21 20 18 17 15 13 11 9 7 6 7 7 7 8 10 10 9 7 7 7 7 6 6 6 5 4 4 5 4 4 4 5 6 6 6 7 8 10 10 11 11 12 12 13 13 13 14 14 14 14 14 14 14 14 13 12 10 10
19 20 20 19 19 18 16 14 12 10 9 7 7 7 8 9 9 11 12 11 9 8 8 7 7 7 7 6 6 4 4 5 4 4 5 5 6 7 7 8 9 10 11 11 12 13 13 13 13 12 13 14 14 14 14 14 13 13 12 10 9 9
19 19 18 17 16 15 13 11 10 9 9 8 9 10 10 11 11 12 12 10 8 8 8 7 7 7 7 6 5 4 4 5 4 5 5 6 6 7 8 9 9 10 11 12 13 13 13 12 12 11 12 13 13 13 13 13 12 11 11 10 10 10
19 18 17 16 14 13 11 10 10 12 12 11 12 12 12 13 13 13 12 10 9 9 8 8 7 6 6 6 5 4 5 5 5 5 5 6 6 7 8 10 11 12 12 13 13 12 12 11 10 10 11 12 13 14 13 13 11 11 11 11 11 11
18 18 17 16 14 13 13 13 13 15 15 14 13 14 14 15 14 13 12 10 10 9 8 8 7 5 5 5 4 4 5 5 6 6 6 7 8 8 10 11 13 14 14 14 14 12 11 10 9 10 11 12 13 13 12 12 11 11 12 12 12 12
19 19 19 17 15 15 15 16 16 16 16 16 15 16 17 16 14 13 12 10 10 10 9 8 6 6 5 5 5 5 6 7 7 8 9 10 11 11 12 13 14 15 16 16 16 14 13 11 11 11 12 12 11 11 11 10 11 11 11 11 11 11
22 22 22 20 18 17 18 18 17 17 17 17 17 18 17 15 14 12 11 10 10 10 9 8 7 7 6 6 7 7 8 9 9 10 11 12 13 13 13 14 14 15 15 16 16 15 15 13 12 10 10 10 9 9 11 11 10 10 10 10 10 11
24 24 24 22 19 19 20 20 19 19 19 19 19 19 18 15 14 12 11 10 10 9 8 8 8 8 8 8 8 9 9 10 11 12 13 13 13 14 15 15 14 13 13 13 14 14 13 13 12 9 7 8 9 9 11 12 11 10 9 10 11 13
24 24 24 22 20 20 21 20 20 21 21 20 20 19 18 16 14 13 12 11 10 9 8 9 9 9 9 10 10 10 10 11 11 13 14 14 15 15 15 14 13 12 12 13 13 13 13 13 13 12 10 9 8 9 10 11 11 11 11 12 14 16
23 24 24 21 20 21 21 20 21 22 22 20 20 19 17 15 13 13 13 12 11 10 9 9 10 10 11 11 11 11 11 11 12 13 14 15 15 14 12 11 11 12 12 13 14 15 16 15 15 15 14 11 9 9 9 10 10 11 12 13 15 16
23 22 22 20 20 21 22 22 22 22 21 20 19 18 16 14 14 15 14 13 12 11 11 10 11 12 12 12 12 11 11 11 11 12 13 13 12 11 10 10 11 12 12 13 14 16 16 16 16 15 13 10 11 8 5 7 9 10 10 11 12 13
22 21 21 20 21 22 23 23 23 23 22 21 19 16 15 15 16 16 15 13 13 12 12 12 13 13 13 12 11 11 10 10 9 10 10 10 10 10 10 11 11 12 12 13 14 15 15 16 15 13 11 9 8 5 6 12 12 7 6 8 10 12
22 22 22 22 21 22 24 24 24 24 23 22 19 16 15 16 16 15 14 13 13 13 13 13 13 13 12 11 11 10 8 8 7 7 8 9 10 10 10 11 11 12 12 13 13 13 13 13 12 11 10 9 7 6 10 15 13 10 9 7 8 12
23 23 23 23 22 23 23 23 22 22 21 19 17 15 16 17 15 14 13 13 12 12 11 11 11 10 10 9 9 7 6 5 6 6 7 9 9 10 10 11 11 11 11 11 10 10 9 9 9 9 9 9 9 10 12 13 13 16 15 11 11 12
23 23 24 24 23 23 23 22 21 20 18 17 15 15 16 16 15 14 13 12 11 9 8 9 9 8 7 6 5 4 4 4 6 7 8 9 9 10 10 10 10 10 9 9 8 8 7 7 7 7 8 8 8 9 10 11 12 14 16 18 18 15
23 24 24 24 23 22 21 20 20 19 17 17 16 16 16 15 14 13 12 11 11 9 7 7 7 6 4 3 3 3 3 4 6 7 8 9 9 9 9 9 9 8 8 8 7 7 7 7 7 7 8 8 7 6 6 7 9 11 14 18 20 22
24 24 24 23 23 22 21 20 18 17 17 17 17 16 16 14 13 13 12 12 11 9 6 6 6 4 3 2 2 2 3 4 5 6 7 8 8 8 8 8 7 7 7 7 7 8 8 8 9 9 9 9 8 8 8 8 10 13 15 16 18 22
24 24 24 23 23 22 21 19 17 17 17 17 16 15 14 13 13 13 12 12 11 8 6 5 5 4 4 3 2 3 4 4 5 6 6 6 6 6 7 6 6 6 7 7 8 9 9 9 10 10 11 11 12 12 12 13 15 16 18 19 20 22
25 25 24 23 23 21 19 18 17 17 17 15 14 14 13 13 14 13 12 11 10 8 7 6 6 5 4 3 3 3 4 4 5 5 5 5 5 5 5 5 5 6 6 7 8 9 9 9 10 10 11 12 12 13 13 14 15 16 18 19 20 21
25 25 23 22 22 21 19 18 18 17 16 15 14 14 15 14 14 12 11 10 9 8 8 7 7 6 5 4 3 4 4 4 4 5 4 4 4 4 4 4 5 6 6 7 8 8 8 9 9 9 11 11 11 12 13 14 14 15 16 17 19 20
26 26 24 23 23 22 20 19 17 17 16 16 17 17 16 14 12 10 10 9 7 8 8 8 7 6 5 4 4 3 3 3 3 3 3 3 3 3 4 4 5 5 5 7 8 8 8 8 8 9 10 10 11 12 13 14 14 16 17 18 20 22
28 27 26 25 24 22 20 19 18 18 18 19 18 17 15 12 11 9 8 6 7 8 9 8 7 6 5 5 4 3 3 3 2 2 1 2 2 3 4 4 5 5 6 7 8 8 8 7 7 9 9 10 11 12 13 14 15 16 17 19 20 21
28 27 25 24 22 21 21 20 20 20 20 19 18 16 14 12 11 9 6 5 7 9 9 8 7 7 6 5 4 3 2 2 1 1 0 1 2 3 3 4 5 5 6 6 7 7 7 7 8 9 9 10 10 11 13 13 14 16 17 18 19 20
26 25 24 23 22 22 22 22 21 21 20 18 17 15 14 12 12 10 7 6 8 10 10 9 8 7 6 5 4 3 2 2 2 1 0 0 1 2 3 4 5 5 5 6 6 6 7 8 8 9 9 9 10 11 12 13 14 15 16 18 19 20
Wind_Direction
165 168 173 175 176 173 165 161 162 160 157 154 151 148 147 146 147 147 143 134 129 131 115 102 97 94 90 86 84 85 93 100 109 131 148 159 158 143 132 125 122 125 133 145 154 162 172 178 184 191 204 219 241 254 263 288 308 309 301 302 312 324
166 169 173 176 177 171 165 165 166 166 162 159 157 154 152 149 151 150 143 138 134 135 123 111 103 95 90 84 81 83 86 95 105 123 145 160 172 171 159 145 134 129 135 145 149 150 154 154 153 162 182 205 238 244 259 295 315 316 305 298 303 312
168 169 173 176 176 170 167 170 171 171 166 161 159 155 155 155 153 144 131 133 128 119 118 120 111 95 88 85 85 87 86 93 112 121 139 151 159 169 171 163 153 146 140 141 145 147 151 152 157 165 173 196 317 307 304 313 315 317 315 307 305 309
169 170 173 176 174 172 171 174 175 172 166 161 160 158 159 160 155 138 127 128 129 123 119 126 123 103 87 84 82 87 96 100 123 138 149 152 151 151 153 157 157 155 150 144 146 154 167 180 192 200 213 251 311 323 318 317 318 319 315 309 308 311
170 172 175 177 174 173 174 175 176 170 163 160 160 162 163 163 156 144 136 130 133 131 124 127 121 119 98 75 61 46 133 127 146 164 172 168 161 153 147 149 153 157 159 158 166 177 194 210 226 243 264 289 303 307 311 312 314 316 312 308 307 310
172 173 174 176 175 175 174 173 174 169 163 163 164 166 166 165 160 153 147 138 140 136 126 125 110 102 72 49 19 326 252 206 181 194 199 195 191 181 167 161 163 167 171 180 200 218 233 248 259 270 286 296 302 303 305 307 309 311 310 309 310 311
174 172 172 175 179 176 173 172 174 171 168 170 170 168 168 170 172 169 163 148 143 132 101 82 49 46 29 3 337 301 255 264 207 207 215 212 214 212 205 196 195 201 211 224 237 246 257 271 279 286 298 301 302 302 303 306 308 310 309 310 311 312
176 175 173 175 180 177 175 176 176 174 173 176 175 173 174 175 178 179 175 156 143 114 34 328 317 322 333 328 337 324 250 255 208 203 203 207 218 221 222 224 229 239 251 260 263 271 279 288 295 296 301 301 301 301 302 305 306 307 306 306 307 307
178 176 177 177 178 179 179 179 178 176 178 181 178 178 180 179 182 183 178 170 177 187 240 281 276 261 289 308 316 326 273 249 215 208 188 213 234 236 243 254 262 267 275 279 278 282 287 292 295 294 294 295 296 298 299 301 301 301 300 300 301 303
176 176 180 177 177 180 180 181 180 179 184 186 182 182 182 184 188 185 179 204 214 212 213 232 252 246 238 282 277 281 279 248 239 270 233 242 260 265 273 279 283 285 284 287 289 289 290 291 290 288 287 288 290 293 294 295 295 295 295 296 299 302
172 175 179 176 177 181 181 183 184 186 191 192 187 184 181 185 189 183 203 229 233 230 220 216 229 234 208 184 218 222 254 264 273 282 270 272 282 286 287 289 290 289 285 285 289 289 287 287 285 285 285 287 290 291 291 291 292 293 294 295 298 303
172 174 177 177 179 182 183 185 187 191 195 193 188 183 181 191 197 202 226 236 239 236 229 212 202 208 199 179 185 198 236 256 262 264 270 285 291 287 287 291 289 285 284 284 285 286 286 287 288 289 291 293 294 293 293 293 295 297 298 298 299 304
174 172 175 179 179 181 183 185 189 192 193 191 188 189 199 212 224 231 234 236 236 232 231 213 186 182 185 185 191 204 231 239 253 271 282 293 294 292 290 293 291 287 288 288 288 288 290 296 299 301 302 302 301 299 300 301 304 304 302 301 299 298
172 168 173 179 181 183 183 185 188 188 189 192 196 211 222 233 247 242 233 227 225 224 225 209 187 187 191 194 208 219 240 253 268 281 287 295 298 300 295 290 292 292 292 292 293 294 298 305 308 311 310 307 305 304 304 304 304 303 300 296 291 286
174 171 175 179 183 185 183 185 187 189 196 203 216 231 236 244 243 233 224 220 221 223 218 206 198 202 200 204 224 240 251 259 267 273 283 290 291 294 289 286 288 289 291 294 297 300 304 308 311 315 313 308 305 303 302 301 301 298 291 286 280 274
181 179 178 178 181 181 181 190 199 211 221 225 232 238 240 239 230 220 218 216 220 225 220 214 211 211 215 222 236 251 257 259 265 271 278 282 283 285 285 287 288 290 293 296 299 302 306 310 314 317 314 310 307 304 303 302 301 295 285 282 278 273
187 184 182 182 180 183 191 204 216 224 230 232 232 233 231 224 219 215 214 210 215 225 223 222 221 217 225 233 235 245 254 259 267 274 282 288 286 286 290 295 298 302 303 305 307 308 313 316 320 323 318 313 311 308 305 303 301 292 284 282 282 281
190 188 189 190 189 194 203 211 221 226 229 228 222 219 216 213 214 216 213 211 217 226 226 226 229 230 237 245 249 258 265 269 277 289 297 301 302 302 304 306 308 310 310 312 314 315 319 322 324 326 320 313 308 304 302 301 298 291 284 282 282 286
192 194 197 198 198 201 206 214 221 223 221 217 211 209 209 209 214 216 215 216 221 223 225 232 244 253 260 265 273 282 286 289 296 304 308 310 312 313 312 311 311 311 311 311 312 315 319 322 324 325 318 309 299 294 293 292 291 289 285 282 283 286
198 201 202 201 202 203 207 214 218 216 210 207 206 207 208 210 214 216 216 219 222 221 224 235 250 261 269 275 282 289 294 297 301 307 310 310 310 310 310 310 310 309 308 308 310 312 314 317 321 326 322 307 293 285 282 281 282 283 284 285 288 291
202 205 205 204 206 206 208 213 213 207 203 203 205 206 208 210 213 214 214 218 222 225 232 242 252 260 271 282 287 290 294 297 301 305 307 308 310 311 313 315 315 313 311 311 309 309 311 315 318 323 321 301 290 283 275 273 273 274 282 293 299 302
202 203 205 208 209 207 209 213 209 203 202 203 203 206 209 208 212 216 214 218 224 235 247 254 260 268 275 282 286 287 290 293 297 301 305 309 313 315 317 318 320 319 317 316 313 312 314 318 320 319 318 307 291 286 277 266 269 276 284 297 304 307
199 200 204 208 208 205 206 208 207 204 203 203 201 205 209 207 211 218 219 224 234 247 256 262 269 276 281 284 286 286 288 290 294 299 304 309 312 316 318 318 318 318 317 318 317 317 318 322 323 321 321 316 300 297 274 249 267 288 292 301 308 313
198 200 201 202 202 202 202 203 205 205 205 204 203 204 205 206 213 220 226 235 246 254 259 267 275 281 285 288 288 288 288 291 295 301 307 310 312 316 316 315 316 315 316 318 318 319 320 322 324 324 326 322 312 312 285 270 294 305 306 315 322 329
198 197 196 197 197 198 200 200 202 202 201 202 203 203 205 212 218 224 232 242 252 259 265 273 278 282 285 288 289 289 291 297 304 309 312 313 314 316 315 314 315 316 318 320 320 321 322 324 329 333 337 341 334 329 325 324 328 333 330 334 344 351
197 195 195 195 194 197 199 200 201 201 202 202 201 203 209 218 226 232 240 249 258 266 273 277 277 278 281 284 287 289 296 305 312 314 313 314 315 316 316 315 317 320 321 321 323 325 326 329 335 342 351 4 5 349 337 337 340 340 340 351 1 2
196 195 194 194 193 196 198 201 204 206 209 208 206 209 215 221 230 240 248 256 264 273 281 283 278 274 274 278 281 287 300 311 315 316 315 315 317 318 317 318 322 324 327 329 331 333 336 339 343 353 6 7 0 351 347 347 347 345 344 344 350 2
196 195 193 192 193 196 200 201 204 208 210 210 214 222 224 225 232 242 251 260 272 283 290 289 279 270 266 268 274 286 306 316 316 314 314 316 318 320 321 324 330 335 341 344 345 348 354 358 359 7 16 12 5 359 353 352 353 352 346 340 342 351
196 194 192 192 193 196 202 205 206 208 208 207 215 225 230 231 235 243 254 268 283 290 290 281 270 263 261 263 270 291 309 310 309 309 313 317 319 322 327 333 342 347 351 352 357 6 12 18 21 26 31 28 24 15 5 359 356 358 355 349 347 347
196 193 193 192 194 197 201 206 208 209 210 211 217 224 229 233 238 248 261 276 285 283 273 261 252 246 242 248 260 281 295 297 302 307 312 317 321 328 335 342 350 353 355 359 8 16 20 26 30 35 36 30 25 19 11 6 5 6 5 0 356 352
196 194 193 193 195 198 200 204 209 212 215 219 225 230 234 239 247 256 265 276 280 267 241 226 225 222 218 224 246 271 285 293 300 306 313 321 330 337 343 350 357 1 4 9 18 20 21 29 32 33 31 24 20 20 16 14 14 10 6 3 359 355
195 193 194 194 195 198 198 201 208 214 218 225 233 239 242 247 253 260 268 275 273 250 218 206 209 211 211 215 238 263 278 291 302 312 321 331 338 344 353 1 8 14 18 22 27 25 25 34 35 30 28 27 23 21 21 22 18 10 6 4 358 353
194 192 193 192 192 194 196 200 206 211 217 224 232 239 242 246 252 261 270 274 265 237 211 201 202 206 208 212 230 254 277 294 309 321 328 334 343 354 5 16 23 27 29 34 37 30 28 33 33 29 29 28 24 22 24 25 18 9 6 1 354 353
193 190 189 188 189 192 195 199 203 208 215 223 230 236 240 244 251 260 269 266 246 220 204 197 199 204 208 217 233 251 279 298 313 322 324 337 351 7 17 25 33 31 30 38 40 33 31 33 34 36 32 27 25 26 26 21 12 6 3 1 358 356
192 190 190 191 192 193 195 197 202 208 216 224 231 235 237 240 246 254 261 251 224 207 200 198 199 205 211 220 233 249 271 287 300 305 312 354 10 23 26 28 34 29 29 38 39 36 36 38 40 39 34 31 28 25 23 16 10 7 4 2 3 2
197 194 193 195 194 194 197 199 204 212 220 226 230 232 232 234 238 241 244 235 220 208 201 201 202 207 211 215 229 244 255 257 243 240 268 38 31 30 27 31 34 30 33 39 35 37 42 44 46 43 37 34 28 23 22 16 9 7 6 5 5 5
199 196 194 195 195 196 200 204 210 217 224 227 229 230 230 233 236 238 236 228 221 212 205 205 206 207 209 215 229 236 233 219 199 181 132 83 51 43 31 39 43 36 40 41 34 42 52 53 52 46 37 32 26 24 23 16 9 6 6 6 7 7